Regional Weather Roundup
Issued by NWS

Home | Current Version | Previous Version | Text Only | Print | Product List | Glossary On
Versions: 1 2 3 4 5 6 7 8 9 10 11 12 13 14 15 16 17 18 19 20 21 22 23 24 25 26 27 28 29 30 31 32 33 34 35 36 37 38 39 40 41 42 43 44 45 46 47 48 49 50
000
ASUS43 KMKX 191411
RWRWI

WISCONSIN REGIONAL WEATHER ROUNDUP
NATIONAL WEATHER SERVICE MILWAUKEE/SULLIVAN WI
900 AM CDT SUN APR 19 2015

NOTE: "FAIR" INDICATES FEW OR NO CLOUDS BELOW 12,000 FEET WITH NO
SIGNIFICANT WEATHER AND/OR OBSTRUCTIONS TO VISIBILITY.

WIZ001-002-006>008-014>016-023>028-191500-
NORTHWEST WISCONSIN

CITY           SKY/WX    TMP DP  RH WIND       PRES   REMARKS
SUPERIOR ARPT  LGT RAIN  37  37  99 NE12      29.76F WCI  29
ASHLAND        CLOUDY    43  41  93 NE5       29.78F
HAYWARD        CLOUDY    47  34  60 S8        29.75F
SIREN          DRIZZLE   44  39  85 SE6       29.73F
CUMBERLAND     DRIZZLE   43  36  75 SE9       29.73F
RICE LAKE      LGT RAIN  46  35  67 SE13      29.76F
CHETEK         CLOUDY    47  35  61 SE10      29.76F
LADYSMITH      CLOUDY    49  32  51 SE10      29.79F
EAU CLAIRE     CLOUDY    50  33  52 SE10      29.75F
MENOMONIE      CLOUDY    48  38  67 E6        29.76F
NEW RICHMOND   CLOUDY    47  37  69 SE7       29.72F
OSCEOLA        CLOUDY    45  41  86 E7        29.74F
$$

WIZ003>005-009-010-017-018-191500-
NORTH CENTRAL WISCONSIN

CITY           SKY/WX    TMP DP  RH WIND       PRES   REMARKS
MANITOWISH WTR CLOUDY    43  30  59 SE8       29.82S
ARBOR VITAE    CLOUDY    44  31  60 SE13      29.82F
WOODRUFF       CLOUDY    44  31  60 SE13      29.82F
RHINELANDER    CLOUDY    47  27  45 SE13      29.85F
EAGLE RIVER    CLOUDY    42  28  58 SE10G17   29.84F
LAND O LAKES   CLOUDY    42  32  67 SE9       29.86F
PHILLIPS       CLOUDY    46  29  51 SE12      29.80F
TOMAHAWK       PTSUNNY   47  28  47 CALM      29.84F
MEDFORD        PTSUNNY   47  31  53 SE12      29.81F
MERRILL        PTSUNNY   48  29  48 SE15G22   29.84F
$$

WIZ029-030-035-036-043>047-191500-
CENTRAL WISCONSIN

CITY           SKY/WX    TMP DP  RH WIND       PRES   REMARKS
WAUSAU         MOSUNNY   49  29  46 SE13      29.83F
MOSINEE        SUNNY     48  30  49 SE13      29.84F
MARSHFIELD     CLOUDY    52  30  43 SE16      29.81F
STEVENS POINT  MOSUNNY   50  31  47 SE10      29.85F
WAUPACA        MOSUNNY   53  32  44 E10       29.87F
WAUTOMA        MOSUNNY   55  29  37 VRB7      29.85F
WISC RAPIDS    CLOUDY    53  27  36 SE9       29.84F
CAMP DOUGLAS   CLOUDY    52  32  46 SE8       29.79F
$$

WIZ011>013-019>022-031-037>040-048>050-191500-
NORTHEAST WISCONSIN

CITY           SKY/WX    TMP DP  RH WIND       PRES   REMARKS
ANTIGO         CLOUDY    43  31  61 SE18G24   29.86F
SHAWANO        CLOUDY    50  32  49 E6        29.91F
OCONTO         CLOUDY    46  32  57 E9        29.92F
STURGEON BAY   MOSUNNY   45  28  53 E12       29.95F
GREEN BAY      CLOUDY    49  32  52 SE10      29.90F
MANITOWOC      PTSUNNY   47  33  58 S13       29.92F
APPLETON       PTSUNNY   48  30  49 SE14G23   29.88F
CLINTONVILLE   PTSUNNY   48  30  49 SE12      29.89F
OSHKOSH        MOSUNNY   51  31  46 SE12G22   29.86F
$$

WIZ032>034-041-042-053>061-191500-
SOUTHWEST WISCONSIN

CITY           SKY/WX    TMP DP  RH WIND       PRES   REMARKS
LA CROSSE      LGT RAIN  54  38  54 SE8       29.76F
SPARTA         CLOUDY    52  33  48 E5        29.79F
VIROQUA        CLOUDY    52  34  50 SE13      29.77F
BOSCOBEL       CLOUDY    58  34  40 E5        29.79F
PRAIRIE DU CHI CLOUDY    55  38  54 E3        29.77F
PLATTEVILLE    CLOUDY    55  36  49 SE9       29.78F
$$

WIZ056-057-062-063-064-067-068-191500-
SOUTH CENTRAL WISCONSIN

CITY           SKY/WX    TMP DP  RH WIND       PRES   REMARKS
REEDSBURG      CLOUDY    55  33  44 SE6       29.80F
BARABOO/DELLS  PTSUNNY   57  32  38 SE7       29.81F
LONE ROCK      CLOUDY    57  35  43 E12       29.79F
MINERAL POINT  PTSUNNY   55  32  41 SE13      29.78F
MADISON        PTSUNNY   54  32  43 SE12      29.81F
MIDDLETON      CLOUDY    56  32  40 SE9       29.81F
WATERTOWN      PTSUNNY   54  33  45 E9        29.83F
MONROE         MOSUNNY   55  37  50 E9        29.79F
JANESVILLE     SUNNY     59  34  38 E13       29.81F
$$

WIZ051-052-058>065-066-070>072-191500-
SOUTHEAST WISCONSIN

CITY           SKY/WX    TMP DP  RH WIND       PRES   REMARKS
MILWAUKEE      PTSUNNY   49  32  52 E13       29.88F
WAUKESHA       PTSUNNY   48  32  53 E9        29.87F
MILWAUKEE/TIMM SUNNY     50  28  43 E9        29.89F
RACINE         MOSUNNY   50  32  50 E12       29.88F
BURLINGTON     SUNNY     53  33  45 E7        29.84F
KENOSHA        MOSUNNY   53  32  44 SE12      29.86F
FOND DU LAC    PTSUNNY   50  30  46 SE16      29.85F
SHEBOYGAN      MOSUNNY   49  31  49 SE12G18   29.91F
WEST BEND      PTSUNNY   50  30  46 E14       29.88F
JUNEAU         PTSUNNY   53  32  46 E14G20    29.85F
$$

LSZ147-162-191500-
LAKE SUPERIOR

STATION/POSITION TIME  TEMP    WIND        PRES    WAVE
                       AIR SEA DIR/SP/G            HT/PER
                 (UTC) (F)     (DEG/KT/KT) (MB)    (FT/S)
DEVILS ISLAND    1400   38      80/ 14/ 15 1009.8F
PORT WING        1340   38      40/ 13/ 15 1008.8F
SAXON HARBOR     1300   44        CALM     1009.5F
$$

LMZ867-665-643>646-191500-
LAKE MICHIGAN

STATION/POSITION TIME  TEMP    WIND        PRES    WAVE
                       AIR SEA DIR/SP/G            HT/PER
                 (UTC) (F)     (DEG/KT/KT) (MB)    (FT/S)
CHAMBERS ISLAND  1300   44      80/  6/  8 1015.6F
NORTHPORT PIER   1320   40      80/  9/ 12 1015.2F
SISTER BAY       1302   49     100/ 13/ 18   N/A
KEWAUNEE LAKESHO 1300   42      60/  5/  7 1013.3F
SHEBOYGAN LAKESH 1400   45     170/  7/  8 1013.5F
PORT WASHINGTON  1300   45      90/  7/  8 1014.2F
MILWAUKEE LAKESH 1300   42      50/  8/  9   N/A
KENOSHA   LAKESH 1400   44      30/  6/  7 1011.2F
$$

TC  - TEMPERATURE IN CELSIUS
VSB - VISIBILITY IN STATUTE MILES
WCI - WIND CHILL INDEX
HX  - HEAT INDEX




USA.gov is the U.S. government's official web portal to all federal, state and local government web resources and services.